Kaneohe MCBH, HI

1:22 PM HST on August 19, 2017 (GMT -1000)
Kaneohe Bay Marine Corps Air Facility

Weather History for PHNG - March, 2014

Change the Weather History Date:

Sunday, March 9, 2014

  Actual Average Record
Temperature  
Mean Temperature 74 °F -  
Max Temperature 80 °F 76 °F 82 °F (2005)
Min Temperature 68 °F 67 °F 64 °F (1998)
Cooling Degree Days 9    
Growing Degree Days 24 (Base 50)    
Moisture  
Dew Point 65 °F    
Average Humidity 75    
Maximum Humidity 88    
Minimum Humidity 61    
Precipitation  
Precipitation 0.02 in - - ()
Sea Level Pressure  
Sea Level Pressure 30.06 in    
Wind  
Wind Speed 11 mph (East)    
Max Wind Speed 15 mph    
Max Gust Speed 25 mph    
Visibility 6 miles    
Events Rain    
Averages and records for this station are not official NWS values.
T = Trace of Precipitation, MM = Missing Value Source: NWS Daily Summary

Daily Weather History Graph

Daily Weather History Graph

Search for Another Location

Airport or City:

Trip Planner

Search our weather history database for the weather conditions in past years. The results will help you decide how hot, cold, wet, or windy it might be!

Date:

Astronomy

Mar. 09, 2014 Rise Set
Actual Time 6:44 AM HST 6:38 PM HST
Civil Twilight 6:22 AM HST 7:00 PM HST
Nautical Twilight 5:56 AM HST 7:26 PM HST
Astronomical Twilight 5:31 AM HST 7:52 PM HST
Moon 1:10 PM HST (3/9) 1:49 AM HST (3/9)
Length of Visible Light 12h 38m
Length of Day
11h 53m
Waxing Gibbous, 63% of the Moon is Illuminated
Mar 9
Waxing Gibbous
Mar 16
Full
Mar 23
Last Quarter
Mar 30
New
Apr 6
First Quarter

Hourly Weather History & Observations

Time (HST) Temp. Heat Index Dew Point Humidity Pressure Visibility Wind Dir Wind Speed Gust Speed Precip Events Conditions
12:12 AM 68.0 °F - 64.4 °F 88% 30.09 in 6.2 mi East 11.5 mph 19.6 mph N/A   Overcast
12:57 AM 68.0 °F - 64.0 °F 87% 30.07 in 7.0 mi East 11.5 mph 20.7 mph 0.00 in   Overcast
1:57 AM 68.0 °F - 64.0 °F 87% 30.05 in 7.0 mi East 13.8 mph 23.0 mph N/A   Overcast
2:57 AM 69.8 °F - 64.0 °F 82% 30.04 in 7.0 mi East 6.9 mph 23.0 mph 0.00 in   Overcast
3:26 AM - - - N/A% 30.05 in 6.2 mi East 11.5 mph 21.9 mph N/A   Overcast
3:35 AM - - - N/A% 30.06 in - East 9.2 mph 17.3 mph 0.00 in Rain Light Rain
3:44 AM - - - N/A% 30.05 in 2.5 mi East 10.4 mph 16.1 mph 0.00 in Rain Light Rain
3:47 AM 69.8 °F - 62.6 °F 78% 30.05 in - East 10.4 mph 18.4 mph 0.00 in Rain Rain
3:57 AM 69.8 °F - 63.0 °F 79% 30.04 in 3.0 mi East 13.8 mph 20.7 mph 0.00 in Rain Light Rain
4:26 AM - - - N/A% 30.05 in 6.0 mi East 12.7 mph 20.7 mph 0.00 in   Haze
4:57 AM 71.6 °F - 64.0 °F 77% 30.04 in 4.0 mi East 11.5 mph 18.4 mph 0.00 in Rain Light Rain
5:18 AM - - - N/A% 30.05 in 6.2 mi East 13.8 mph 20.7 mph 0.00 in   Overcast
5:57 AM 71.6 °F - 66.0 °F 82% 30.04 in 6.0 mi East 11.5 mph 20.7 mph 0.00 in   Haze
6:07 AM 71.6 °F - 66.2 °F 83% 30.06 in 6.2 mi ENE 9.2 mph 19.6 mph N/A   Overcast
6:57 AM 71.6 °F - 66.9 °F 85% 30.06 in 7.0 mi East 10.4 mph 18.4 mph 0.00 in   Overcast
7:04 AM 73.4 °F - 66.2 °F 78% 30.08 in 5.0 mi East 11.5 mph - N/A   Haze
7:08 AM 73.4 °F - 66.2 °F 78% 30.08 in - East 11.5 mph 20.7 mph 0.00 in Rain Light Rain
7:19 AM 73.4 °F - 66.2 °F 78% 30.08 in - East 6.9 mph 16.1 mph 0.01 in Rain Light Rain
7:40 AM 73.4 °F - 66.2 °F 78% 30.08 in - East 9.2 mph 16.1 mph 0.02 in   Haze
7:50 AM 73.4 °F - 66.2 °F 78% 30.08 in 6.2 mi East 8.1 mph 16.1 mph 0.02 in   Overcast
7:57 AM 73.4 °F - 66.0 °F 78% 30.07 in 7.0 mi East 9.2 mph - 0.02 in   Overcast
8:24 AM 73.4 °F - 66.2 °F 78% 30.09 in 6.2 mi East 13.8 mph - N/A   Scattered Clouds
8:42 AM 73.4 °F - 66.2 °F 78% 30.10 in 6.2 mi East 11.5 mph 17.3 mph N/A   Mostly Cloudy
8:57 AM 73.4 °F - 66.0 °F 78% 30.09 in 7.0 mi Variable 5.8 mph - N/A   Overcast
9:57 AM 75.2 °F - 66.0 °F 73% 30.09 in 7.0 mi East 12.7 mph 17.3 mph 0.00 in   Overcast
10:57 AM 75.2 °F - 66.0 °F 73% 30.09 in 7.0 mi East 9.2 mph 18.4 mph N/A   Overcast
11:18 AM 75.2 °F - 66.2 °F 73% 30.10 in 6.2 mi East 9.2 mph 17.3 mph N/A   Overcast
11:57 AM 80.6 °F 82.7 °F 66.0 °F 61% 30.07 in 7.0 mi East 10.4 mph 19.6 mph N/A   Overcast
12:31 PM 80.6 °F 82.7 °F 66.2 °F 61% 30.07 in 6.2 mi East 10.4 mph 19.6 mph N/A   Mostly Cloudy
12:44 PM 80.6 °F 82.7 °F 66.2 °F 61% 30.06 in 6.2 mi East 8.1 mph 17.3 mph N/A   Mostly Cloudy
12:57 PM 80.6 °F 82.7 °F 66.0 °F 61% 30.04 in 8.0 mi East 8.1 mph 19.6 mph N/A   Mostly Cloudy
1:57 PM 80.6 °F 82.9 °F 66.9 °F 63% 30.02 in 7.0 mi East 10.4 mph 17.3 mph N/A   Overcast
2:57 PM 80.6 °F 82.7 °F 66.0 °F 61% 30.00 in 7.0 mi Variable 6.9 mph - N/A   Overcast
3:57 PM 77.0 °F - 64.9 °F 66% 29.99 in 7.0 mi East 10.4 mph 17.3 mph N/A   Overcast
4:57 PM 75.2 °F - 64.9 °F 70% 30.01 in 7.0 mi East 11.5 mph 17.3 mph N/A   Overcast
5:57 PM 73.4 °F - 64.0 °F 72% 30.02 in 6.0 mi East 10.4 mph - N/A   Haze
6:57 PM 75.2 °F - 64.0 °F 68% 30.03 in 7.0 mi East 11.5 mph 18.4 mph N/A   Overcast
7:31 PM 73.4 °F - 64.4 °F 73% 30.05 in 6.2 mi ENE 15.0 mph 25.3 mph 0.00 in   Overcast
7:48 PM 73.4 °F - 64.4 °F 73% 30.06 in 6.2 mi East 11.5 mph 18.4 mph 0.00 in   Overcast
7:57 PM 73.4 °F - 64.9 °F 75% 30.05 in 8.0 mi East 8.1 mph 18.4 mph 0.00 in   Overcast
8:45 PM 71.6 °F - 64.4 °F 78% 30.08 in 6.2 mi East 9.2 mph 16.1 mph N/A   Overcast
8:57 PM 71.6 °F - 64.9 °F 79% 30.06 in 9.0 mi East 10.4 mph 19.6 mph N/A   Overcast
9:57 PM 71.6 °F - 64.9 °F 79% 30.09 in 8.0 mi East 10.4 mph 16.1 mph N/A   Mostly Cloudy
10:35 PM 73.4 °F - 64.4 °F 73% 30.10 in 6.2 mi East 8.1 mph - N/A   Mostly Cloudy
10:57 PM 73.4 °F - 64.0 °F 72% 30.08 in 8.0 mi East 6.9 mph - N/A   Mostly Cloudy
11:57 PM 73.4 °F - 64.0 °F 72% 30.07 in 8.0 mi East 5.8 mph - N/A   Overcast